Charleston, SC

4:29 PM EDT on October 21, 2017 (GMT -0400)
Charleston Executive

Weather History for KJZI - January, 2014

Change the Weather History Date:

Saturday, January 11, 2014

  Actual Average (KCHS) Record (KCHS)
Temperature  
Mean Temperature 64 °F -  
Max Temperature 69 °F 56 °F 82 °F (1949)
Min Temperature 60 °F 35 °F 10 °F (1982)
Growing Degree Days 14 (Base 50)    
Moisture  
Dew Point 64 °F    
Average Humidity 97    
Maximum Humidity 100    
Minimum Humidity 77    
Precipitation  
Precipitation 0.31 in - - ()
Sea Level Pressure  
Sea Level Pressure 29.90 in    
Wind  
Wind Speed 11 mph (SSW)    
Max Wind Speed 20 mph    
Max Gust Speed 32 mph    
Visibility 4 miles    
Events Fog , Rain    
Averages and records for this station are not official NWS values.
T = Trace of Precipitation, MM = Missing Value Source: NWS Daily Summary

Daily Weather History Graph

Daily Weather History Graph

Search for Another Location

Airport or City:

Trip Planner

Search our weather history database for the weather conditions in past years. The results will help you decide how hot, cold, wet, or windy it might be!

Date:

Astronomy

Jan. 11, 2014 Rise Set
Actual Time 7:22 AM EST 5:33 PM EST
Civil Twilight 6:56 AM EST 6:00 PM EST
Nautical Twilight 6:25 AM EST 6:30 PM EST
Astronomical Twilight 5:55 AM EST 7:00 PM EST
Moon 2:13 PM EST (1/11) 3:29 AM EST (1/11)
Length of Visible Light 11h 04m
Length of Day
10h 10m
Waxing Gibbous, 83% of the Moon is Illuminated
Jan 11
Waxing Gibbous
Jan 15
Full
Jan 24
Last Quarter
Jan 30
New
Feb 6
First Quarter

Hourly Weather History & Observations

Time (EST) Temp. Dew Point Humidity Pressure Visibility Wind Dir Wind Speed Gust Speed Precip Events Conditions
12:15 AM 64.4 °F 64.4 °F 100% 30.08 in 10.0 mi SE 8.1 mph - 0.00 in   Overcast
12:35 AM 64.4 °F 64.4 °F 100% 30.08 in 10.0 mi SE 11.5 mph - 0.00 in   Overcast
12:55 AM 66.2 °F 64.4 °F 94% 30.07 in 10.0 mi SSE 6.9 mph - 0.00 in   Overcast
1:15 AM 66.2 °F 64.4 °F 94% 30.06 in 10.0 mi South 6.9 mph - 0.00 in   Overcast
1:35 AM 64.4 °F 62.6 °F 94% 30.06 in 8.0 mi South 6.9 mph - 0.00 in   Overcast
1:55 AM 62.6 °F 62.6 °F 100% 30.05 in 6.0 mi South 6.9 mph - 0.00 in   Mostly Cloudy
2:15 AM 64.4 °F 64.4 °F 100% 30.05 in 5.0 mi South 4.6 mph - 0.00 in   Overcast
2:35 AM 66.2 °F 66.2 °F 100% 30.04 in 8.0 mi SSW 8.1 mph - 0.00 in   Overcast
2:55 AM 66.2 °F 66.2 °F 100% 30.04 in 2.0 mi SSW 6.9 mph - 0.00 in   Overcast
3:15 AM 66.2 °F 64.4 °F 94% 30.03 in 0.2 mi SSW 6.9 mph - 0.00 in Fog Fog
3:35 AM 64.4 °F 64.4 °F 100% 30.03 in 0.2 mi SSW 8.1 mph - 0.00 in Fog Fog
3:55 AM 64.4 °F 64.4 °F 100% 30.03 in 0.2 mi SSW 11.5 mph - 0.00 in Fog Fog
4:15 AM 64.4 °F 64.4 °F 100% 30.02 in 0.2 mi SSW 8.1 mph - 0.00 in Fog Fog
4:35 AM 64.4 °F 64.4 °F 100% 30.01 in 0.2 mi SSW 11.5 mph 16.1 mph 0.00 in Fog Fog
4:55 AM 64.4 °F 64.4 °F 100% 30.00 in 0.2 mi SSW 10.4 mph - 0.00 in Fog Fog
5:15 AM 64.4 °F 64.4 °F 100% 30.00 in 0.2 mi SW 9.2 mph - 0.00 in Fog Fog
5:35 AM 66.2 °F 66.2 °F 100% 29.99 in 0.5 mi SSW 12.7 mph 17.3 mph 0.00 in Fog Fog
5:55 AM 66.2 °F 66.2 °F 100% 29.99 in 1.2 mi SSW 13.8 mph 18.4 mph 0.00 in   Overcast
6:15 AM 66.2 °F 66.2 °F 100% 29.99 in 1.0 mi SSW 10.4 mph - 0.00 in   Overcast
6:35 AM 66.2 °F 64.4 °F 94% 29.99 in 1.0 mi SSW 11.5 mph - 0.00 in   Overcast
6:55 AM 64.4 °F 64.4 °F 100% 29.98 in 1.2 mi SSW 13.8 mph 19.6 mph 0.00 in   Overcast
7:15 AM 66.2 °F 66.2 °F 100% 29.98 in 3.0 mi SSW 15.0 mph 20.7 mph 0.00 in   Overcast
7:35 AM 64.4 °F 64.4 °F 100% 29.98 in 2.0 mi SSW 15.0 mph 23.0 mph 0.00 in   Overcast
7:55 AM 66.2 °F 66.2 °F 100% 29.98 in 4.0 mi SSW 16.1 mph 19.6 mph 0.00 in   Overcast
8:15 AM 64.4 °F 64.4 °F 100% 29.98 in 2.0 mi South 16.1 mph 23.0 mph 0.00 in   Overcast
8:35 AM 66.2 °F 66.2 °F 100% 29.98 in 0.2 mi SSW 17.3 mph 24.2 mph 0.00 in Fog Fog
8:55 AM 68.0 °F 68.0 °F 100% 29.98 in 0.5 mi SSW 17.3 mph 26.5 mph 0.00 in Fog Fog
9:15 AM 66.2 °F 66.2 °F 100% 29.98 in 0.2 mi SSW 15.0 mph 24.2 mph 0.00 in Fog Fog
9:35 AM 68.0 °F 68.0 °F 100% 29.98 in 1.0 mi SSW 15.0 mph 19.6 mph 0.00 in   Overcast
9:55 AM 69.8 °F 68.0 °F 94% 29.97 in 0.5 mi SSW 12.7 mph 21.9 mph 0.00 in Fog Fog
10:15 AM 69.8 °F 68.0 °F 94% 29.97 in 1.8 mi SSW 15.0 mph 25.3 mph 0.00 in   Overcast
10:35 AM 68.0 °F 66.2 °F 94% 29.97 in 1.8 mi SW 15.0 mph 23.0 mph 0.00 in   Overcast
10:55 AM 66.2 °F 66.2 °F 100% 29.95 in 2.0 mi SSW 13.8 mph 24.2 mph 0.00 in   Overcast
11:15 AM 66.2 °F 66.2 °F 100% 29.94 in 1.5 mi SSW 16.1 mph 25.3 mph 0.00 in   Overcast
11:35 AM 66.2 °F 66.2 °F 100% 29.92 in 0.8 mi SSW 17.3 mph 23.0 mph 0.00 in   Overcast
11:55 AM 66.2 °F 66.2 °F 100% 29.90 in 0.5 mi SSW 18.4 mph 25.3 mph 0.00 in Fog Fog
12:15 PM 66.2 °F 64.4 °F 94% 29.89 in 0.2 mi SSW 16.1 mph 28.8 mph 0.00 in Fog Fog
12:35 PM 64.4 °F 64.4 °F 100% 29.87 in 0.2 mi SSW 16.1 mph 24.2 mph 0.00 in Fog Fog
12:55 PM 66.2 °F 64.4 °F 94% 29.86 in 0.2 mi SSW 18.4 mph 25.3 mph 0.00 in Fog Fog
1:15 PM 66.2 °F 64.4 °F 94% 29.84 in 1.0 mi SW 15.0 mph 24.2 mph 0.00 in   Overcast
1:35 PM 66.2 °F 64.4 °F 94% 29.82 in 2.5 mi SSW 16.1 mph 24.2 mph 0.00 in   Overcast
1:55 PM 66.2 °F 64.4 °F 94% 29.79 in 1.8 mi SSW 18.4 mph 23.0 mph 0.00 in   Overcast
2:15 PM 66.2 °F 64.4 °F 94% 29.80 in 8.0 mi SW 18.4 mph 23.0 mph 0.00 in   Overcast
2:35 PM 66.2 °F 64.4 °F 94% 29.79 in 3.0 mi SSW 16.1 mph 24.2 mph 0.00 in   Overcast
2:55 PM 66.2 °F 64.4 °F 94% 29.77 in 1.5 mi SSW 16.1 mph 28.8 mph 0.00 in   Overcast
3:15 PM 64.4 °F 64.4 °F 100% 29.77 in 2.0 mi SW 13.8 mph 27.6 mph 0.00 in   Overcast
3:35 PM 66.2 °F 64.4 °F 94% 29.76 in 6.0 mi SSW 15.0 mph 23.0 mph 0.00 in   Overcast
3:55 PM 64.4 °F 62.6 °F 94% 29.76 in 5.0 mi SSW 16.1 mph 21.9 mph 0.00 in   Overcast
4:15 PM 64.4 °F 62.6 °F 94% 29.76 in 5.0 mi SSW 15.0 mph 24.2 mph 0.00 in   Mostly Cloudy
4:35 PM 66.2 °F 64.4 °F 94% 29.76 in 5.0 mi SSW 13.8 mph 23.0 mph 0.00 in   Mostly Cloudy
4:55 PM 66.2 °F 64.4 °F 94% 29.76 in 3.0 mi SSW 15.0 mph 24.2 mph 0.00 in Rain Light Rain
5:15 PM 64.4 °F 64.4 °F 100% 29.81 in 2.5 mi West 19.6 mph 32.2 mph 0.04 in Rain Heavy Rain
5:35 PM 62.6 °F 62.6 °F 100% 29.80 in 2.0 mi SW 18.4 mph 24.2 mph 0.18 in Rain Heavy Rain
5:55 PM 62.6 °F 62.6 °F 100% 29.79 in 4.0 mi SW 6.9 mph 16.1 mph 0.25 in Rain Rain
6:15 PM 62.6 °F 62.6 °F 100% 29.77 in 3.0 mi SSW 6.9 mph - 0.04 in   Mostly Cloudy
6:35 PM 62.6 °F 60.8 °F 94% 29.77 in 5.0 mi SSW 12.7 mph - 0.06 in   Mostly Cloudy
6:55 PM 60.8 °F 60.8 °F 100% 29.78 in 5.0 mi SW 10.4 mph 18.4 mph 0.06 in   Mostly Cloudy
7:15 PM 60.8 °F 60.8 °F 100% 29.77 in 5.0 mi SSW 9.2 mph 19.6 mph 0.00 in   Overcast
7:35 PM 60.8 °F 60.8 °F 100% 29.78 in 4.0 mi SW 10.4 mph 20.7 mph 0.00 in   Overcast
7:55 PM 60.8 °F 60.8 °F 100% 29.78 in 5.0 mi SW 15.0 mph 18.4 mph 0.00 in   Overcast
8:15 PM 60.8 °F 60.8 °F 100% 29.79 in 5.0 mi SW 4.6 mph - 0.00 in   Overcast
8:35 PM 60.8 °F 60.8 °F 100% 29.79 in 5.0 mi SW 8.1 mph - 0.00 in   Overcast
8:55 PM 60.8 °F 60.8 °F 100% 29.80 in 5.0 mi SW 5.8 mph - 0.00 in   Overcast
9:15 PM 60.8 °F 60.8 °F 100% 29.81 in 5.0 mi SW 5.8 mph - 0.00 in   Overcast
9:35 PM 60.8 °F 60.8 °F 100% 29.80 in 4.0 mi WSW 8.1 mph - 0.00 in   Overcast
9:55 PM 60.8 °F 60.8 °F 100% 29.80 in 2.5 mi WSW 4.6 mph - 0.00 in   Overcast
10:15 PM 62.6 °F 62.6 °F 100% 29.79 in 7.0 mi WSW 11.5 mph 18.4 mph 0.00 in   Overcast
10:35 PM 62.6 °F 62.6 °F 100% 29.80 in 10.0 mi WSW 10.4 mph 17.3 mph 0.00 in   Overcast
10:55 PM 62.6 °F 60.8 °F 94% 29.80 in 10.0 mi West 11.5 mph 19.6 mph 0.00 in   Overcast
11:15 PM 62.6 °F 57.2 °F 82% 29.80 in 10.0 mi WSW 10.4 mph 18.4 mph 0.00 in   Overcast
11:35 PM 62.6 °F 55.4 °F 77% 29.80 in 10.0 mi WSW 9.2 mph - 0.00 in   Overcast
11:55 PM 60.8 °F 55.4 °F 82% 29.82 in 10.0 mi WSW 6.9 mph - 0.00 in   Overcast